Other Public Products
Issued by NWS Charleston, SC

Current Version | Previous Version | Text Only | Print | Product List | Glossary Off
Versions: 1 2 3 4 5 6 7 8 9 10 11 12 13 14 15 16 17 18 19 20 21 22 23 24 25 26 27 28 29 30 31 32 33 34 35 36 37 38 39 40 41 42 43 44 45 46 47 48 49 50
000 FPUS82 KCHS 260712 OPUCHS TEST...KCHS/KSAV Gateway Observations...TEST National Weather Service Charleston SC 300 AM EDT WED JUL 26 2017 NOTE: "fair" indicates few or no clouds below 12,000 feet with no significant weather and/or obstructions to visibility. SCZ050-WAZ558-NCZ071-TXZ119-213-PAZ071-DCZ001-FLZ074-172-MI076- NYZ176-178-MAZ016-IL014-TNZ027-NJZ106-GAZ044-MD014-260800- ...Gateway Observations for Charleston International... CITY SKY/WX TMP DP RH WIND PRES REMARKS Chas Airport MOCLDY 74 72 93 CALM 30.05F Seattle CLEAR 71 54 54 N9 30.02R Charlotte CLOUDY 81 71 71 SE7 30.11F Dallas DFW CLEAR 85 71 63 S14 30.03S HX 90 Dallas Love CLEAR 84 70 62 S13 30.05S Philladelphia CLOUDY 68 62 81 E7 30.21F Wash National CLEAR 72 63 73 NE8 30.19F Baltimore PTCLDY 65 63 93 CALM 30.18F Miami PTCLDY 84 77 79 E8 30.08F HX 94 Detroit MOCLDY 64 59 83 CALM 30.20S Newark CLOUDY 67 57 70 NE10 30.22F Laguardia CLOUDY 67 59 75 NE8 30.22S J F K CLOUDY 66 60 81 NE6 30.23F Boston Logan CLEAR 61 56 83 W3 30.20F Ft. Lauderdale PTCLDY 84 77 79 SE8 30.08F HX 94 Chicago O`Hare MOCLDY 69 58 67 S8 30.14R Chicago Midway CLOUDY 71 59 65 S7 30.13R Houston Bush PTCLDY 82 73 74 S5 30.07F Houston Hobby CLOUDY 81 74 79 S3 30.06F Nashville CLEAR 78 72 81 CALM 30.10F Atlanta CLEAR 76 73 91 CALM 30.10S $$ GAZ044-118-TXZ119-213-NCZ071-DCZ001-MDZ014-506-PAZ021-071-NJZ106- NYZ176-178-MAZ106-OHZ011-021-055-MIZ076-KYZ091-ILZ014-INZ047- MNZ060-ONZ431-260800- ...Gateway Observations for Savannah International... CITY SKY/WX TMP DP RH WIND PRES REMARKS Savannah Arpt CLOUDY N/A N/A N/A CALM 30.07F Atlanta CLEAR 76 73 91 CALM 30.10S Charlotte CLOUDY 81 71 71 SE7 30.11F Dallas DFW CLEAR 85 71 63 S14 30.03S HX 90 Houston Bush PTCLDY 82 73 74 S5 30.07F Wash National CLEAR 72 63 73 NE8 30.19F Wash Dulles PTCLDY 63 60 90 CALM 30.19F Baltimore PTCLDY 65 63 93 CALM 30.18F Philadelphia CLOUDY 68 62 81 E7 30.21F Newark CLOUDY 67 57 70 NE10 30.22F Laguardia CLOUDY 67 59 75 NE8 30.22S J F K CLOUDY 66 60 81 NE6 30.23F Boston CLEAR 61 56 83 W3 30.20F Pittsburg CLEAR 60 58 92 CALM 30.20F Akron CLEAR 61 54 77 CALM 30.20F Cleveland CLEAR 62 56 80 SE3 30.21F Cincinnati CLEAR 65 62 90 SE9 30.16F Columbus CLEAR 60 59 99 CALM 30.18F Detroit MOCLDY 64 59 83 CALM 30.20S Chicago O`Hare MOCLDY 69 58 67 S8 30.14R Minneapolis CLOUDY 77 73 87 NE6 29.97F Indianapolis CLEAR 66 61 84 SE8 30.14F Toronto Canada PTCLDY 61 55 82 W3 30.21S $$

USA.gov is the U.S. government's official web portal to all federal, state and local government web resources and services.